[[{"header":{"parameterUnit":"m.s-1","parameterCategory":1,"la1":30.2991,"la2":30.254,"lo1":-89.0895,"lo2":-89.0444,"dy":0.0017,"dx":0.0017,"nx":28,"ny":28,"refTime":"2025-09-17T21:00:00:Z","depth":0,"parameterNumber":2,"parameterNumberName":"U-component_of_WINDS"},"data":[0,0,0,0,0,0,0,0,0,0,0,0,0,0,0,0,0,0,0,0,0,0,0,0,0,0,0,0,0,0,0,0,0,0,0,0,0,0,0,0,0,0,0,0,0,0,0,0,0,0,0,0,0,0,0,0,0,0,0.3971,0.3971,0,0.3997,0.3998,0.3998,0.4012,0.4012,0.4012,0.4012,0.4038,0.4038,0.4039,0,0,0,0,0,0,0,0,0,0,0,0,0,0.3931,0.3931,0.3971,0.3971,0.3972,0.3997,0.3998,0.3998,0.4011,0.4012,0.4012,0.4012,0.4037,0.4038,0.4039,0,0,0,0,0,0,0,0,0,0,0,0,0,0.3952,0.3931,0.3971,0.3982,0.3983,0.3997,0.3998,0.3998,0.4011,0.4012,0.4012,0.4012,0.4037,0.4038,0.4039,0.4045,0,0,0.4042,0.4043,0,0,0,0,0,0,0,0,0.395,0.3953,0.398,0.3981,0.3982,0.4001,0.3993,0.4014,0.4011,0.4001,0.4012,0.4012,0.4025,0.4027,0.4032,0.4046,0.4047,0.4042,0.4043,0.4043,0.4044,0,0,0,0,0,0,0,0.3949,0.3952,0.3981,0.398,0.3982,0.3984,0.3987,0.3997,0.4012,0.4002,0.4003,0.4006,0.4026,0.4031,0.4033,0.4047,0.4042,0.4043,0.4044,0.4044,0.4065,0.4065,0,0,0,0,0,0,0.3946,0.3951,0.3981,0.3982,0.3966,0.3985,0.3988,0.3995,0.4012,0.4015,0.4005,0.4006,0.4029,0.4032,0.4034,0.404,0.4043,0.4044,0.4045,0.4065,0.4065,0.4065,0,0,0,0,0,0,0.3945,0.3948,0.3979,0.3967,0.3971,0.3986,0.3993,0.3996,0.4001,0.4015,0.4018,0.4008,0.403,0.4032,0.4042,0.4042,0.4045,0.4046,0.4065,0.4065,0.4065,0.4054,0,0,0,0,0,0,0.3944,0.3948,0.3951,0.3967,0.3971,0.3987,0.3993,0.3996,0.4002,0.4003,0.4018,0.4021,0.403,0.404,0.4043,0.4043,0.4046,0.4065,0.4065,0.4065,0.4055,0.4054,0.4053,0,0,0,0,0,0.3942,0.3947,0.3951,0.3955,0.3976,0.3987,0.399,0.4,0.4002,0.4005,0.4014,0.402,0.4041,0.4041,0.4044,0.4045,0.4065,0.4065,0.4065,0.4055,0.4054,0.4053,0,0,0,0,0,0,0.3932,0.395,0.3954,0.3964,0.3974,0.399,0.3993,0.3999,0.4009,0.4009,0.4021,0.4024,0.4032,0.4039,0.4039,0.405,0.4054,0.4054,0.4045,0.4044,0.4043,0.4041,0.4047,0,0,0,0,0,0.393,0.3939,0.3954,0.3961,0.3966,0.3979,0.3984,0.3991,0.4002,0.4006,0.4016,0.4026,0.4034,0.404,0.4048,0.4056,0.4058,0.4057,0.4057,0.4056,0.4056,0.4059,0.4058,0.4065,0.4065,0.4065,0,0,0.3928,0.3939,0.3944,0.3959,0.3968,0.3976,0.3982,0.3991,0.3996,0.4007,0.4016,0.4024,0.4035,0.4043,0.4047,0.4049,0.4055,0.4056,0.4055,0.4056,0.4059,0.4058,0.4058,0.4065,0.4065,0.4065,0,0,0.3927,0.3937,0.3943,0.3951,0.3964,0.3972,0.3973,0.3988,0.3993,0.4002,0.401,0.4016,0.4031,0.4039,0.4044,0.4044,0.405,0.4047,0.4043,0.4045,0.4045,0.4044,0.4043,0.4043,0.4047,0.4047,0.4047,0,0.3923,0.3935,0.3946,0.3953,0.396,0.397,0.3975,0.3983,0.3997,0.4001,0.4003,0.4021,0.4029,0.4038,0.4038,0.4043,0.4044,0.4045,0.4044,0.4044,0.4043,0.4042,0.4042,0.4046,0.4047,0.4047,0.4047,0,0.3928,0.3937,0.394,0.3954,0.396,0.3967,0.3978,0.3983,0.3989,0.3996,0.4004,0.4015,0.4025,0.4028,0.4034,0.4037,0.4038,0.4042,0.4046,0.4042,0.4041,0.4041,0.4046,0.4046,0.4046,0.4046,0,0,0.3923,0.3941,0.3942,0.3947,0.3961,0.3967,0.3974,0.3984,0.3987,0.3996,0.4001,0.4013,0.4016,0.4022,0.4029,0.4031,0.4029,0.4035,0.4036,0.4033,0.4031,0.4028,0.4027,0.4033,0.4033,0.4033,0.403,0,0.3924,0.3936,0.3945,0.3954,0.396,0.3969,0.3974,0.3983,0.3989,0.3996,0.4003,0.401,0.4015,0.4018,0.4021,0.4029,0.4029,0.4029,0.4037,0.4037,0.4033,0.4027,0.4024,0.4021,0.403,0.403,0.403,0,0.3927,0.3935,0.3944,0.3955,0.3959,0.3963,0.3972,0.3978,0.3987,0.3992,0.3998,0.4005,0.401,0.4014,0.4021,0.4021,0.4025,0.4029,0.4029,0.403,0.4033,0.4027,0.402,0.402,0.403,0.403,0.403,0,0.3921,0.3934,0.3941,0.3946,0.3959,0.3962,0.3967,0.3976,0.3981,0.3989,0.3991,0.4,0.4004,0.4009,0.4018,0.4019,0.4024,0.4028,0.4027,0.4027,0.4028,0.4027,0.402,0.4031,0.4031,0.4031,0.4031,0,0.3921,0.3926,0.3938,0.3942,0.3948,0.3957,0.3962,0.3968,0.3975,0.398,0.3988,0.3992,0.4003,0.4008,0.4014,0.4019,0.4021,0.4024,0.4026,0.4023,0.4023,0.4025,0.4026,0.403,0.403,0.403,0.403,0,0.3915,0.3924,0.3932,0.3943,0.3946,0.3949,0.3959,0.3962,0.3969,0.3974,0.3976,0.3986,0.3993,0.4001,0.401,0.4014,0.4018,0.4021,0.4015,0.4015,0.4013,0.4013,0.4008,0.4007,0.4018,0.4018,0.4018,0,0.3915,0.3918,0.393,0.3933,0.3938,0.3944,0.3949,0.3958,0.3962,0.3971,0.3973,0.398,0.3986,0.3995,0.4003,0.401,0.4012,0.401,0.4013,0.401,0.4011,0.4011,0.401,0.4009,0.4009,0.4009,0.4009,0,0.3912,0.3915,0.3922,0.3929,0.3934,0.394,0.3947,0.3949,0.3959,0.3963,0.3969,0.3974,0.3982,0.3988,0.3996,0.4001,0.4006,0.4007,0.4007,0.4005,0.4001,0.4002,0.4012,0.4008,0.4008,0.4008,0.4008,0.4008,0.3908,0.3911,0.3919,0.3925,0.3931,0.3936,0.394,0.3946,0.3951,0.3959,0.3964,0.3969,0.3976,0.3986,0.3991,0.3995,0.3997,0.3997,0.3997,0.3997,0.3996,0.4,0.3996,0.3997,0.3997,0.3997,0.3997,0,0.3905,0.391,0.3916,0.3924,0.3928,0.3933,0.3939,0.3943,0.3947,0.3954,0.3959,0.3965,0.3971,0.3978,0.3984,0.3985,0.3988,0.3987,0.3986,0.3987,0.3994,0.3993,0.3984,0.3984,0.3984,0.3984,0.3984,0.3984,0.3904,0.3909,0.3913,0.392,0.3925,0.393,0.3934,0.3938,0.3943,0.395,0.3954,0.3959,0.3965,0.3971,0.3976,0.3978,0.3979,0.3977,0.398,0.3986,0.3987,0.3988,0.3987,0.3977,0.3977,0.3972,0.3972,0.3972]},{"header":{"parameterUnit":"m.s-1","parameterCategory":1,"la1":30.2991,"la2":30.254,"lo1":-89.0895,"lo2":-89.0444,"dy":0.0017,"dx":0.0017,"nx":28,"ny":28,"refTime":"2025-09-17T21:00:00:Z","depth":0,"parameterNumber":3,"parameterNumberName":"V-component_of_WINDS"},"data":[0,0,0,0,0,0,0,0,0,0,0,0,0,0,0,0,0,0,0,0,0,0,0,0,0,0,0,0,0,0,0,0,0,0,0,0,0,0,0,0,0,0,0,0,0,0,0,0,0,0,0,0,0,0,0,0,0,0,-0.8369,-0.8369,0,-0.8335,-0.8335,-0.8334,-0.8349,-0.835,-0.8351,-0.8351,-0.8314,-0.8312,-0.8311,0,0,0,0,0,0,0,0,0,0,0,0,0,-0.8446,-0.8444,-0.8369,-0.8369,-0.8368,-0.8335,-0.8335,-0.8334,-0.8349,-0.835,-0.8351,-0.8352,-0.8315,-0.8313,-0.831,0,0,0,0,0,0,0,0,0,0,0,0,0,-0.8412,-0.8444,-0.8369,-0.8372,-0.8372,-0.8335,-0.8335,-0.8334,-0.8349,-0.835,-0.8351,-0.8352,-0.8315,-0.8313,-0.831,-0.8269,0,0,-0.8302,-0.8301,0,0,0,0,0,0,0,0,-0.8414,-0.8409,-0.8372,-0.8372,-0.8371,-0.8348,-0.8348,-0.8312,-0.8348,-0.8357,-0.8351,-0.8353,-0.8324,-0.8321,-0.8312,-0.8267,-0.8265,-0.8302,-0.83,-0.8299,-0.8298,0,0,0,0,0,0,0,-0.8416,-0.8411,-0.8356,-0.8371,-0.8371,-0.8374,-0.8371,-0.8341,-0.8334,-0.8357,-0.8358,-0.8353,-0.8324,-0.8314,-0.8311,-0.8265,-0.8302,-0.8299,-0.8298,-0.8297,-0.8185,-0.8183,0,0,0,0,0,0,-0.8419,-0.8413,-0.8357,-0.8355,-0.8396,-0.8372,-0.8368,-0.8354,-0.8334,-0.8333,-0.8352,-0.8354,-0.8318,-0.8314,-0.8309,-0.8259,-0.8299,-0.8297,-0.8295,-0.8186,-0.8184,-0.8183,0,0,0,0,0,0,-0.8421,-0.8414,-0.8358,-0.8384,-0.8377,-0.8369,-0.8353,-0.8353,-0.8342,-0.8331,-0.833,-0.8343,-0.8319,-0.8313,-0.8279,-0.8258,-0.8295,-0.8293,-0.8188,-0.8186,-0.8184,-0.8159,0,0,0,0,0,0,-0.8423,-0.8414,-0.8399,-0.8384,-0.8376,-0.8328,-0.8352,-0.8351,-0.8338,-0.834,-0.8322,-0.8321,-0.8319,-0.8283,-0.8276,-0.8255,-0.8291,-0.819,-0.8187,-0.8184,-0.8162,-0.8156,-0.8152,0,0,0,0,0,-0.8425,-0.8393,-0.8398,-0.8391,-0.8356,-0.8327,-0.8323,-0.8322,-0.8336,-0.832,-0.8313,-0.8321,-0.8262,-0.8279,-0.8272,-0.825,-0.8191,-0.8188,-0.8185,-0.8164,-0.8158,-0.8152,0,0,0,0,0,0,-0.8404,-0.8391,-0.8396,-0.8358,-0.8344,-0.833,-0.8309,-0.8316,-0.8297,-0.8299,-0.8299,-0.8295,-0.826,-0.8252,-0.8271,-0.8209,-0.8228,-0.8224,-0.8215,-0.8209,-0.8204,-0.8206,-0.8289,0,0,0,0,0,-0.8395,-0.8374,-0.8363,-0.833,-0.8323,-0.8317,-0.8305,-0.8306,-0.8291,-0.8285,-0.8275,-0.826,-0.8238,-0.8223,-0.8202,-0.8161,-0.8157,-0.8143,-0.8138,-0.8134,-0.8129,-0.8107,-0.81,-0.8173,-0.8173,-0.8173,0,0,-0.8376,-0.8366,-0.8352,-0.8325,-0.8314,-0.8291,-0.8312,-0.8287,-0.8269,-0.8281,-0.8248,-0.824,-0.8223,-0.8186,-0.8168,-0.8178,-0.8109,-0.813,-0.8127,-0.8124,-0.8103,-0.8096,-0.809,-0.8171,-0.8171,-0.8171,0,0,-0.8329,-0.832,-0.8291,-0.8281,-0.8265,-0.8262,-0.8255,-0.824,-0.8236,-0.8203,-0.8211,-0.8191,-0.8153,-0.8141,-0.8129,-0.808,-0.8086,-0.8073,-0.8047,-0.8025,-0.8019,-0.8014,-0.7996,-0.7989,-0.8069,-0.8069,-0.8069,0,-0.8307,-0.8273,-0.8276,-0.825,-0.8238,-0.8248,-0.8219,-0.8209,-0.8186,-0.8177,-0.8189,-0.8142,-0.8131,-0.809,-0.8078,-0.8069,-0.8061,-0.8074,-0.802,-0.8015,-0.801,-0.7993,-0.7986,-0.8067,-0.8067,-0.8067,-0.8068,0,-0.8247,-0.8223,-0.8202,-0.8181,-0.8167,-0.814,-0.8137,-0.8123,-0.8126,-0.8121,-0.8088,-0.8076,-0.8053,-0.8044,-0.8046,-0.8003,-0.801,-0.8021,-0.804,-0.8002,-0.7985,-0.7979,-0.8065,-0.8065,-0.8066,-0.8066,0,0,-0.8184,-0.8166,-0.8158,-0.8149,-0.8133,-0.8114,-0.8088,-0.8066,-0.8053,-0.8038,-0.8015,-0.7984,-0.7994,-0.7981,-0.7982,-0.7963,-0.7924,-0.7977,-0.7976,-0.7967,-0.7876,-0.7868,-0.786,-0.7929,-0.7928,-0.7927,-0.7878,0,-0.8135,-0.8089,-0.8091,-0.8048,-0.8026,-0.8036,-0.8013,-0.8001,-0.7996,-0.7977,-0.7972,-0.7949,-0.7965,-0.7957,-0.7939,-0.7933,-0.7906,-0.7937,-0.7907,-0.7906,-0.791,-0.7851,-0.7842,-0.7795,-0.7871,-0.787,-0.7869,0,-0.8072,-0.8055,-0.801,-0.7998,-0.7989,-0.7968,-0.7949,-0.793,-0.7916,-0.7915,-0.7901,-0.7906,-0.7878,-0.79,-0.7862,-0.7883,-0.7871,-0.7867,-0.7865,-0.7861,-0.7884,-0.7845,-0.7781,-0.7773,-0.7859,-0.786,-0.7861,0,-0.803,-0.7996,-0.7965,-0.7957,-0.7942,-0.7927,-0.792,-0.7907,-0.7895,-0.7878,-0.7869,-0.7849,-0.7838,-0.7822,-0.7821,-0.7837,-0.7783,-0.7805,-0.778,-0.778,-0.7767,-0.7768,-0.7699,-0.7762,-0.7762,-0.7762,-0.7762,0,-0.7974,-0.7946,-0.7946,-0.7926,-0.7895,-0.7898,-0.7866,-0.7861,-0.785,-0.7829,-0.7837,-0.7818,-0.7818,-0.7798,-0.7798,-0.7766,-0.7761,-0.7759,-0.7758,-0.7757,-0.7757,-0.7749,-0.7751,-0.776,-0.776,-0.7761,-0.7761,0,-0.7921,-0.792,-0.7886,-0.7876,-0.7872,-0.785,-0.784,-0.7821,-0.7819,-0.7793,-0.7787,-0.7782,-0.7759,-0.7757,-0.773,-0.773,-0.7692,-0.7695,-0.7696,-0.7696,-0.7672,-0.7674,-0.7594,-0.7584,-0.7654,-0.7654,-0.7653,0,-0.7885,-0.7864,-0.7851,-0.7838,-0.7831,-0.781,-0.7797,-0.78,-0.7786,-0.7769,-0.7752,-0.7731,-0.7713,-0.7676,-0.767,-0.7649,-0.7652,-0.7626,-0.7649,-0.7649,-0.7651,-0.7652,-0.7649,-0.7621,-0.762,-0.7619,-0.7619,0,-0.7822,-0.7822,-0.7804,-0.7786,-0.7771,-0.7756,-0.7743,-0.7732,-0.7732,-0.7717,-0.7694,-0.768,-0.7654,-0.7632,-0.7612,-0.7604,-0.7611,-0.7612,-0.7605,-0.7603,-0.7604,-0.7602,-0.7683,-0.7613,-0.7614,-0.7614,-0.7615,-0.7615,-0.7775,-0.7757,-0.7745,-0.7725,-0.7715,-0.7703,-0.7685,-0.768,-0.7662,-0.764,-0.7643,-0.7618,-0.7605,-0.758,-0.7571,-0.7551,-0.7559,-0.755,-0.7547,-0.7544,-0.7541,-0.7608,-0.7547,-0.7547,-0.7547,-0.7548,-0.7548,0,-0.7711,-0.7705,-0.7686,-0.7668,-0.7651,-0.7661,-0.7647,-0.7633,-0.761,-0.7598,-0.7581,-0.7555,-0.7534,-0.7527,-0.7507,-0.7492,-0.7495,-0.7487,-0.7487,-0.7485,-0.7535,-0.7543,-0.7485,-0.7485,-0.7485,-0.7485,-0.7485,-0.7485,-0.7676,-0.7645,-0.7645,-0.761,-0.7604,-0.7579,-0.757,-0.7559,-0.7549,-0.752,-0.7503,-0.7499,-0.7489,-0.7468,-0.7449,-0.7448,-0.744,-0.743,-0.7429,-0.7476,-0.7482,-0.7488,-0.7495,-0.7428,-0.7428,-0.7381,-0.7381,-0.7381]}]]